[[{"header":{"parameterUnit":"m.s-1","parameterCategory":1,"la1":30.2991,"la2":30.254,"lo1":-89.0895,"lo2":-89.0444,"dy":0.0017,"dx":0.0017,"nx":28,"ny":28,"refTime":"2026-01-04T03:00:00:Z","depth":0,"parameterNumber":2,"parameterNumberName":"U-component_of_WINDS"},"data":[0,0,0,0,0,0,0,0,0,0,0,0,0,0,0,0,0,0,0,0,0,0,0,0,0,0,0,0,0,0,0,0,0,0,0,0,0,0,0,0,0,0,0,0,0,0,0,0,0,0,0,0,0,0,0,0,0,0,1.6923,1.6923,0,1.6929,1.6929,1.6929,1.6812,1.6809,1.6806,1.6803,1.6815,1.6819,1.6822,0,0,0,0,0,0,0,0,0,0,0,0,0,1.6817,1.682,1.6923,1.6923,1.6923,1.6929,1.6929,1.6929,1.6812,1.6809,1.6805,1.6801,1.6814,1.6818,1.6822,0,0,0,0,0,0,0,0,0,0,0,0,0,1.6848,1.6821,1.6923,1.6865,1.686,1.6929,1.6929,1.6929,1.6813,1.6809,1.6804,1.6799,1.6813,1.6818,1.6823,1.6949,0,0,1.6838,1.684,0,0,0,0,0,0,0,0,1.6846,1.6852,1.6874,1.687,1.6864,1.6865,1.6896,1.6936,1.6815,1.6831,1.6802,1.6797,1.6836,1.6839,1.6851,1.6949,1.695,1.6838,1.6841,1.6843,1.6845,0,0,0,0,0,0,0,1.6844,1.6851,1.6925,1.6874,1.6868,1.6842,1.6841,1.6903,1.6861,1.683,1.6821,1.6823,1.6833,1.6846,1.685,1.695,1.6838,1.6843,1.6846,1.6848,1.7155,1.716,0,0,0,0,0,0,1.6849,1.685,1.6925,1.6926,1.6843,1.6847,1.6846,1.6869,1.686,1.6853,1.6827,1.6818,1.684,1.6844,1.685,1.6998,1.6843,1.6848,1.6851,1.715,1.7156,1.7162,0,0,0,0,0,0,1.6847,1.6857,1.6925,1.6885,1.6892,1.6854,1.6881,1.6872,1.6885,1.6858,1.685,1.6848,1.6836,1.6843,1.6925,1.6997,1.685,1.6855,1.7144,1.7152,1.7159,1.7295,0,0,0,0,0,0,1.6845,1.6857,1.6902,1.6887,1.6895,1.6998,1.6886,1.6876,1.6893,1.6881,1.6876,1.687,1.6833,1.6918,1.693,1.7001,1.6859,1.7137,1.7147,1.7156,1.7284,1.7307,1.7326,0,0,0,0,0,1.6841,1.6942,1.6905,1.6915,1.6951,1.7002,1.7007,1.696,1.69,1.6947,1.6929,1.687,1.6987,1.6928,1.694,1.7014,1.7132,1.7144,1.7156,1.7275,1.7302,1.7326,0,0,0,0,0,0,1.6968,1.6938,1.6898,1.6996,1.7003,1.6983,1.704,1.6991,1.7016,1.7004,1.6947,1.6947,1.7039,1.7034,1.6969,1.7136,1.7049,1.7064,1.7136,1.7162,1.7182,1.7182,1.6863,0,0,0,0,0,1.7007,1.705,1.7022,1.7112,1.7117,1.7078,1.7099,1.7063,1.7068,1.7071,1.7059,1.7069,1.7107,1.7134,1.7168,1.7283,1.7281,1.734,1.7361,1.7378,1.7392,1.7454,1.7481,1.72,1.72,1.72,0,0,1.7089,1.7078,1.7109,1.7137,1.7137,1.7185,1.7081,1.7136,1.7171,1.708,1.7156,1.7148,1.7155,1.7255,1.7298,1.7254,1.7469,1.7393,1.7407,1.7411,1.7469,1.7496,1.7519,1.7208,1.7207,1.7205,0,0,1.7262,1.7258,1.7332,1.7335,1.7337,1.7311,1.7329,1.7317,1.7308,1.7383,1.7316,1.7358,1.7426,1.7434,1.7447,1.7626,1.7573,1.7639,1.7748,1.781,1.7832,1.7851,1.7917,1.7941,1.7652,1.7653,1.7653,0,1.7365,1.7431,1.7377,1.7436,1.7452,1.7369,1.7446,1.7452,1.7466,1.748,1.743,1.7514,1.7513,1.7614,1.7657,1.767,1.7691,1.7639,1.7833,1.7852,1.7869,1.7931,1.7955,1.766,1.766,1.7659,1.7658,0,1.7558,1.7605,1.7666,1.7679,1.7702,1.777,1.7728,1.7758,1.772,1.7701,1.778,1.7776,1.7808,1.7829,1.7794,1.7926,1.7899,1.7842,1.7754,1.7905,1.7962,1.7985,1.7672,1.7669,1.7667,1.7665,0,0,1.7811,1.7794,1.7818,1.7823,1.782,1.7857,1.7923,1.7952,1.798,1.7993,1.8048,1.8108,1.8055,1.807,1.8035,1.8089,1.8233,1.8025,1.8024,1.8065,1.8381,1.8425,1.8453,1.8198,1.8202,1.8205,1.8381,0,1.798,1.8088,1.8042,1.8156,1.8201,1.8124,1.8181,1.8187,1.8171,1.8208,1.8191,1.8235,1.8161,1.817,1.822,1.8205,1.8296,1.8191,1.8251,1.8253,1.8252,1.8482,1.8528,1.8693,1.8403,1.8406,1.8409,0,1.8192,1.8212,1.833,1.832,1.8337,1.8389,1.8414,1.845,1.8456,1.8441,1.8458,1.8411,1.8477,1.8389,1.8481,1.8411,1.8433,1.8429,1.8434,1.8439,1.8341,1.8494,1.8745,1.877,1.8443,1.8441,1.8438,0,1.8367,1.8424,1.8502,1.8509,1.8499,1.8538,1.8536,1.8537,1.8558,1.8581,1.8595,1.8626,1.8643,1.8669,1.8633,1.8572,1.8731,1.8639,1.8722,1.8724,1.876,1.8758,1.9019,1.8773,1.8772,1.8772,1.8771,0,1.8561,1.8637,1.858,1.8628,1.8712,1.8659,1.8744,1.8734,1.8736,1.8783,1.8719,1.8765,1.8714,1.8756,1.8728,1.8809,1.8818,1.8809,1.8801,1.8815,1.8816,1.8829,1.8817,1.8778,1.8777,1.8776,1.8775,0,1.8771,1.8735,1.8816,1.8799,1.8797,1.886,1.8847,1.8892,1.8872,1.8932,1.8943,1.8912,1.8958,1.8924,1.8971,1.8952,1.906,1.9035,1.9057,1.9051,1.9136,1.9129,1.9415,1.945,1.9181,1.9183,1.9186,0,1.8897,1.8953,1.8943,1.8969,1.8971,1.9013,1.9034,1.8986,1.9012,1.9024,1.9069,1.9109,1.9138,1.9216,1.9199,1.9235,1.9211,1.9309,1.9216,1.9229,1.9214,1.9212,1.9218,1.9328,1.9331,1.9334,1.9336,0,1.9127,1.9107,1.9139,1.9166,1.9193,1.9212,1.9226,1.9252,1.9203,1.9235,1.928,1.9304,1.935,1.9392,1.9422,1.9422,1.9373,1.9365,1.9387,1.9402,1.9413,1.9409,1.9109,1.9359,1.9357,1.9355,1.9354,1.9353,1.9299,1.9346,1.9346,1.9385,1.939,1.9406,1.9448,1.9432,1.9468,1.9501,1.9471,1.9527,1.9533,1.9567,1.9574,1.9619,1.9579,1.9609,1.9617,1.9626,1.9638,1.9405,1.9624,1.9623,1.9622,1.9622,1.9621,0,1.9526,1.9523,1.9558,1.958,1.9611,1.9559,1.9573,1.9603,1.9652,1.9661,1.9691,1.9745,1.9785,1.9772,1.9808,1.9846,1.9825,1.9858,1.9855,1.9856,1.9671,1.9649,1.9875,1.9875,1.9875,1.9875,1.9875,1.9875,1.9648,1.9725,1.9705,1.9785,1.9781,1.9833,1.9846,1.9861,1.9868,1.9929,1.9962,1.9952,1.9953,1.9989,2.0025,2.002,2.0037,2.0079,2.0067,1.9894,1.9869,1.9845,1.9824,2.0083,2.0083,2.0248,2.0249,2.025]},{"header":{"parameterUnit":"m.s-1","parameterCategory":1,"la1":30.2991,"la2":30.254,"lo1":-89.0895,"lo2":-89.0444,"dy":0.0017,"dx":0.0017,"nx":28,"ny":28,"refTime":"2026-01-04T03:00:00:Z","depth":0,"parameterNumber":3,"parameterNumberName":"V-component_of_WINDS"},"data":[0,0,0,0,0,0,0,0,0,0,0,0,0,0,0,0,0,0,0,0,0,0,0,0,0,0,0,0,0,0,0,0,0,0,0,0,0,0,0,0,0,0,0,0,0,0,0,0,0,0,0,0,0,0,0,0,0,0,-1.7094,-1.7093,0,-1.6957,-1.6956,-1.6954,-1.7038,-1.7042,-1.7046,-1.705,-1.6898,-1.689,-1.6882,0,0,0,0,0,0,0,0,0,0,0,0,0,-1.7416,-1.741,-1.7094,-1.7093,-1.7091,-1.6958,-1.6956,-1.6954,-1.7037,-1.7042,-1.7047,-1.7052,-1.69,-1.6891,-1.6882,0,0,0,0,0,0,0,0,0,0,0,0,0,-1.7277,-1.7408,-1.7095,-1.7117,-1.7118,-1.6958,-1.6956,-1.6953,-1.7036,-1.7042,-1.7048,-1.7054,-1.6903,-1.6892,-1.688,-1.6687,0,0,-1.6845,-1.6839,0,0,0,0,0,0,0,0,-1.7285,-1.7265,-1.7115,-1.7115,-1.7116,-1.7021,-1.7014,-1.6864,-1.7035,-1.7067,-1.705,-1.7057,-1.6933,-1.6919,-1.688,-1.668,-1.6674,-1.6843,-1.6836,-1.6831,-1.6828,0,0,0,0,0,0,0,-1.7295,-1.7272,-1.704,-1.7113,-1.7113,-1.713,-1.7117,-1.6986,-1.6967,-1.7064,-1.707,-1.7054,-1.6934,-1.6891,-1.6877,-1.6672,-1.6844,-1.6833,-1.6826,-1.6822,-1.6305,-1.6299,0,0,0,0,0,0,-1.7304,-1.7279,-1.7044,-1.7036,-1.7217,-1.7119,-1.7105,-1.7045,-1.6969,-1.6964,-1.7049,-1.7058,-1.6908,-1.6891,-1.6872,-1.664,-1.6831,-1.682,-1.6814,-1.6312,-1.6303,-1.6296,0,0,0,0,0,0,-1.7311,-1.7282,-1.705,-1.7159,-1.7131,-1.7107,-1.704,-1.7039,-1.6997,-1.6957,-1.6953,-1.7009,-1.6912,-1.6888,-1.6733,-1.6636,-1.6815,-1.6805,-1.6319,-1.6309,-1.63,-1.6176,0,0,0,0,0,0,-1.732,-1.7284,-1.7214,-1.7157,-1.7125,-1.6916,-1.7034,-1.7032,-1.6978,-1.6989,-1.6919,-1.6913,-1.6915,-1.675,-1.6722,-1.6623,-1.6795,-1.6328,-1.6315,-1.6303,-1.6188,-1.6163,-1.6141,0,0,0,0,0,-1.7331,-1.7182,-1.721,-1.7181,-1.7036,-1.6911,-1.6892,-1.6901,-1.697,-1.6896,-1.6871,-1.6915,-1.6652,-1.6734,-1.6702,-1.6599,-1.6334,-1.6319,-1.6304,-1.6199,-1.6168,-1.6141,0,0,0,0,0,0,-1.7223,-1.7175,-1.7205,-1.7034,-1.6976,-1.6925,-1.6833,-1.6868,-1.6786,-1.6799,-1.681,-1.6794,-1.6632,-1.66,-1.6692,-1.6407,-1.6503,-1.6481,-1.6434,-1.6404,-1.6381,-1.639,-1.6786,0,0,0,0,0,-1.718,-1.7086,-1.7047,-1.69,-1.687,-1.6856,-1.6802,-1.6814,-1.6753,-1.6728,-1.6692,-1.6627,-1.653,-1.6465,-1.6374,-1.6185,-1.6169,-1.6098,-1.6074,-1.6055,-1.6034,-1.593,-1.5897,-1.6247,-1.6247,-1.6247,0,0,-1.7089,-1.7051,-1.699,-1.6877,-1.6834,-1.6733,-1.6835,-1.6723,-1.6647,-1.671,-1.6562,-1.6533,-1.6461,-1.6288,-1.621,-1.6256,-1.5935,-1.6035,-1.602,-1.601,-1.5911,-1.5878,-1.5849,-1.6236,-1.6238,-1.624,0,0,-1.6871,-1.6834,-1.6707,-1.6662,-1.6597,-1.6589,-1.6558,-1.6502,-1.6486,-1.6339,-1.6384,-1.6291,-1.6124,-1.6071,-1.6022,-1.5785,-1.5821,-1.5754,-1.5629,-1.5527,-1.5499,-1.5475,-1.5388,-1.5357,-1.5735,-1.5734,-1.5734,0,-1.6764,-1.6618,-1.6636,-1.6521,-1.6469,-1.6526,-1.6394,-1.6349,-1.6255,-1.6216,-1.6271,-1.6062,-1.6018,-1.5832,-1.5775,-1.5734,-1.5696,-1.5761,-1.5503,-1.5478,-1.5455,-1.5373,-1.534,-1.5727,-1.5728,-1.5728,-1.5729,0,-1.6489,-1.6386,-1.629,-1.6203,-1.614,-1.6017,-1.6013,-1.5946,-1.5964,-1.5949,-1.5797,-1.5747,-1.5646,-1.5603,-1.5617,-1.5418,-1.5449,-1.5503,-1.5599,-1.5414,-1.5336,-1.5305,-1.5715,-1.5718,-1.5721,-1.5723,0,0,-1.6198,-1.6124,-1.6088,-1.6048,-1.5981,-1.5899,-1.5778,-1.5683,-1.5625,-1.5558,-1.5454,-1.5312,-1.5362,-1.5306,-1.5315,-1.5226,-1.5038,-1.5291,-1.5289,-1.5244,-1.4813,-1.4772,-1.4735,-1.5063,-1.5058,-1.5053,-1.4819,0,-1.5974,-1.5768,-1.578,-1.5584,-1.5487,-1.5539,-1.5433,-1.5378,-1.5361,-1.5273,-1.5253,-1.5151,-1.5226,-1.5192,-1.5107,-1.508,-1.4952,-1.5097,-1.4963,-1.4958,-1.4978,-1.4695,-1.4651,-1.4432,-1.4788,-1.4783,-1.478,0,-1.5686,-1.5614,-1.5409,-1.5356,-1.5315,-1.522,-1.5134,-1.5051,-1.4988,-1.4982,-1.492,-1.4944,-1.4817,-1.4919,-1.4743,-1.4841,-1.4787,-1.4765,-1.4757,-1.4743,-1.4856,-1.4671,-1.4363,-1.4329,-1.4732,-1.4736,-1.4739,0,-1.5492,-1.5343,-1.5201,-1.5166,-1.51,-1.5032,-1.5,-1.4945,-1.4886,-1.4809,-1.4771,-1.4679,-1.4628,-1.4554,-1.4551,-1.4625,-1.4372,-1.4473,-1.4359,-1.4359,-1.4302,-1.4305,-1.3979,-1.427,-1.4271,-1.4271,-1.4272,0,-1.524,-1.5112,-1.5113,-1.5025,-1.4882,-1.4896,-1.4753,-1.4728,-1.4678,-1.4583,-1.4622,-1.4532,-1.4534,-1.4441,-1.4437,-1.4291,-1.4267,-1.4256,-1.4256,-1.4251,-1.4252,-1.4214,-1.4228,-1.4263,-1.4265,-1.4266,-1.4268,0,-1.4998,-1.4994,-1.4843,-1.4794,-1.4779,-1.4675,-1.4632,-1.4547,-1.4534,-1.4414,-1.4386,-1.4364,-1.4256,-1.4247,-1.4121,-1.4118,-1.394,-1.3958,-1.3962,-1.3965,-1.3851,-1.3861,-1.3487,-1.3437,-1.3763,-1.376,-1.3757,0,-1.4837,-1.474,-1.4682,-1.4624,-1.459,-1.4495,-1.4437,-1.4446,-1.4383,-1.4305,-1.4228,-1.4126,-1.4044,-1.3869,-1.3839,-1.3742,-1.3756,-1.3632,-1.3741,-1.3739,-1.3752,-1.3757,-1.3746,-1.3609,-1.3606,-1.3603,-1.3601,0,-1.455,-1.4554,-1.4471,-1.4386,-1.4317,-1.425,-1.4187,-1.4136,-1.4137,-1.4064,-1.3957,-1.3894,-1.3767,-1.3663,-1.3569,-1.3532,-1.3564,-1.3567,-1.3535,-1.3528,-1.3534,-1.3527,-1.3902,-1.3575,-1.3577,-1.3579,-1.3581,-1.3582,-1.4342,-1.4259,-1.4205,-1.4111,-1.4066,-1.4006,-1.3924,-1.3902,-1.3814,-1.3715,-1.3725,-1.3605,-1.3543,-1.342,-1.3377,-1.3281,-1.3322,-1.3276,-1.3264,-1.3252,-1.324,-1.3552,-1.3263,-1.3264,-1.3265,-1.3265,-1.3266,0,-1.4056,-1.4025,-1.3939,-1.3852,-1.3776,-1.3819,-1.3752,-1.3685,-1.358,-1.3522,-1.3442,-1.3317,-1.3217,-1.318,-1.3081,-1.3011,-1.3023,-1.2984,-1.2988,-1.2979,-1.3209,-1.3246,-1.2976,-1.2976,-1.2976,-1.2976,-1.2976,-1.2976,-1.3899,-1.3759,-1.3755,-1.3592,-1.3561,-1.3447,-1.3405,-1.3349,-1.3302,-1.3163,-1.3082,-1.306,-1.3008,-1.2906,-1.2815,-1.2806,-1.2767,-1.2721,-1.2718,-1.2934,-1.2963,-1.299,-1.3025,-1.2713,-1.2712,-1.2495,-1.2493,-1.2492]}]]